SharedSat 2211

operational
NORAD ID: 55016 Int'l Des: NNA 2023-001 Owner: ENDUR Country: BGN
LEOCIRCULARRETROGRADESSO

About SharedSat 2211

Description loading...

Live Position

Loading 3D Globe...

Upcoming Passes

Altitude History

Altitude vs Time

uPlot chart will show altitude changes over time

Two-Line Element Set

1 55016U 23001H 26048.58369318 .00015880 00000-0 42177-3 0 9992
2 55016 97.3327 112.6544 0007279 170.8607 189.2772 15.38329397173813
Epoch: Feb 17, 2026 • Age: 9 hours

Current Status

Altitude 458.0 km
Velocity 7.64 km/s
Sub-Earth Point 10.42°N, 27.56°W
Launch Date Jan 3, 2023
Age 3.1 years
Type other

Technical Details

Classification Payload
Mass 10.00 kg
Dry Mass 10.00 kg
Total Mass 10.00 kg
Length 0.30 m
Diameter 0.20 m
Span 0.30 m
Shape Box+2 pan
Manufacturer ENDUR
Bus Type Cubesat 6U
Phase Status In Orbit
Owner/State ENDUR/BGN

Large Constellations

Loading constellations...